AEE409 EKCH-LGKL

Flight info

Callsign AEE409
Flight time 2h 53m
Altitude 35000
Route SIMEG Z493 XELOL Z491 BEDAM/N0448F370 Z491 VAVUN L996 DENKO L616 DESEN DCT ALAMU DCT BABIT DCT RIGMU DCT VAL DCT REDVA UL616 KOGAT DCT BITLA DCT IPTES UL604 TRL J61 IPTAG
Aircraft A320/M-SDE3FGHIRWY/LB1

Departure

Time 2026-04-22 15:56
Airport Copenhagen Kastrup Airport (EKCH)

Arrival

Time 2026-04-22 18:49
Airport Kalamata Airport (LGKL)
Time Latitude Longitude Altitude Speed Heading
2026-04-22 15:18 55.62893 12.63935 24 ft 0 kts 13°
2026-04-22 15:41 55.62889 12.63933 24 ft 2 kts 13°
2026-04-22 15:41 55.62873 12.63925 24 ft 2 kts 17°
2026-04-22 15:42 55.62858 12.63916 24 ft 2 kts 25°
2026-04-22 15:42 55.62843 12.63901 25 ft 2 kts 60°
2026-04-22 15:42 55.62840 12.63875 27 ft 1 kts 104°
2026-04-22 15:42 55.62841 12.63869 26 ft 0 kts 103°
2026-04-22 15:44 55.62834 12.63910 25 ft 6 kts 112°
2026-04-22 15:45 55.62788 12.63956 24 ft 10 kts 183°
2026-04-22 15:45 55.62722 12.63911 24 ft 11 kts 183°
2026-04-22 15:45 55.62674 12.64004 24 ft 11 kts 122°
2026-04-22 15:45 55.62626 12.64134 26 ft 15 kts 123°
2026-04-22 15:46 55.62567 12.64291 24 ft 16 kts 123°
2026-04-22 15:46 55.62505 12.64461 24 ft 17 kts 123°
2026-04-22 15:46 55.62439 12.64642 25 ft 18 kts 124°
2026-04-22 15:46 55.62366 12.64832 24 ft 19 kts 123°
2026-04-22 15:47 55.62293 12.65032 25 ft 14 kts 122°
2026-04-22 15:47 55.62290 12.65181 27 ft 14 kts 63°
2026-04-22 15:47 55.62295 12.65353 24 ft 15 kts 90°
2026-04-22 15:47 55.62297 12.65541 24 ft 17 kts 89°
2026-04-22 15:48 55.62300 12.65755 24 ft 18 kts 89°
2026-04-22 15:48 55.62310 12.65969 24 ft 13 kts 68°
2026-04-22 15:48 55.62297 12.66105 23 ft 13 kts 152°
2026-04-22 15:48 55.62204 12.66174 22 ft 16 kts 155°
2026-04-22 15:49 55.62088 12.66254 23 ft 22 kts 162°
2026-04-22 15:49 55.61940 12.66339 26 ft 23 kts 162°
2026-04-22 15:49 55.61844 12.66438 25 ft 12 kts 98°
2026-04-22 15:49 55.61858 12.66593 26 ft 13 kts 80°
2026-04-22 15:50 55.61875 12.66760 24 ft 15 kts 79°
2026-04-22 15:50 55.61881 12.66945 25 ft 15 kts 126°
2026-04-22 15:50 55.61776 12.67004 24 ft 18 kts 169°
2026-04-22 15:50 55.61643 12.67051 25 ft 20 kts 168°
2026-04-22 15:51 55.61504 12.67099 24 ft 21 kts 169°
2026-04-22 15:51 55.61368 12.67130 24 ft 17 kts 184°
2026-04-22 15:51 55.61348 12.67122 24 ft 0 kts 199°
2026-04-22 15:53 55.61343 12.67119 24 ft 0 kts 198°
2026-04-22 15:54 55.61338 12.67116 24 ft 5 kts 199°
2026-04-22 15:54 55.61291 12.67067 25 ft 9 kts 218°
2026-04-22 15:54 55.61285 12.66971 28 ft 9 kts 306°
2026-04-22 15:54 55.61301 12.66931 27 ft 0 kts 303°
2026-04-22 15:55 55.61331 12.66850 24 ft 33 kts 303°
2026-04-22 15:55 55.61611 12.66094 28 ft 109 kts 303°
2026-04-22 15:55 55.62133 12.64677 66 ft 161 kts 303°
2026-04-22 15:55 55.62786 12.62927 478 ft 186 kts 306°
2026-04-22 15:56 55.63548 12.60898 1072 ft 211 kts 306°
2026-04-22 15:56 55.64366 12.58562 1840 ft 232 kts 299°
2026-04-22 15:56 55.64993 12.55931 2918 ft 236 kts 294°
2026-04-22 15:56 55.65446 12.53332 3655 ft 245 kts 282°
2026-04-22 15:57 55.65266 12.50246 4382 ft 262 kts 252°
2026-04-22 15:57 55.64214 12.47541 5149 ft 276 kts 224°
2026-04-22 15:57 55.62507 12.45882 5925 ft 287 kts 200°
2026-04-22 15:57 55.60559 12.44934 6711 ft 292 kts 195°
2026-04-22 15:58 55.58561 12.44090 7441 ft 297 kts 191°
2026-04-22 15:58 55.56491 12.44147 8140 ft 302 kts 166°
2026-04-22 15:58 55.54579 12.45659 8859 ft 302 kts 140°
2026-04-22 15:58 55.53176 12.48366 9593 ft 298 kts 115°
2026-04-22 15:59 55.52265 12.51627 10312 ft 298 kts 111°
2026-04-22 15:59 55.51347 12.55063 10672 ft 321 kts 111°
2026-04-22 15:59 55.50378 12.58684 11031 ft 345 kts 112°
2026-04-22 15:59 55.49322 12.62593 11564 ft 360 kts 112°
2026-04-22 16:00 55.48237 12.66563 12127 ft 364 kts 112°
2026-04-22 16:00 55.47127 12.70610 12731 ft 367 kts 113°
2026-04-22 16:00 55.46011 12.74670 13362 ft 370 kts 113°
2026-04-22 16:00 55.44886 12.78762 14001 ft 372 kts 113°
2026-04-22 16:01 55.43755 12.82871 14559 ft 374 kts 113°
2026-04-22 16:01 55.42616 12.87013 15094 ft 376 kts 113°
2026-04-22 16:01 55.41472 12.91169 15646 ft 378 kts 113°
2026-04-22 16:01 55.40319 12.95345 16159 ft 380 kts 113°
2026-04-22 16:02 55.39158 12.99542 16677 ft 382 kts 113°
2026-04-22 16:02 55.37989 13.03757 17222 ft 385 kts 113°
2026-04-22 16:02 55.36812 13.07991 17762 ft 387 kts 113°
2026-04-22 16:02 55.35626 13.12253 18287 ft 389 kts 113°
2026-04-22 16:03 55.34429 13.16544 18777 ft 392 kts 113°
2026-04-22 16:03 55.33225 13.20857 19240 ft 394 kts 113°
2026-04-22 16:03 55.32018 13.25181 19728 ft 396 kts 113°
2026-04-22 16:03 55.30800 13.29537 20201 ft 398 kts 113°
2026-04-22 16:04 55.29571 13.33909 20653 ft 400 kts 114°
2026-04-22 16:04 55.28333 13.38287 21109 ft 402 kts 114°
2026-04-22 16:04 55.27085 13.42702 21533 ft 405 kts 114°
2026-04-22 16:04 55.25833 13.47129 21951 ft 407 kts 115°
2026-04-22 16:05 55.24881 13.49988 22213 ft 411 kts 121°
2026-04-22 16:05 55.22471 13.55236 22756 ft 416 kts 128°
2026-04-22 16:05 55.20565 13.59064 23156 ft 418 kts 128°
2026-04-22 16:05 55.18649 13.62918 23562 ft 420 kts 128°
2026-04-22 16:06 55.16725 13.66791 23929 ft 422 kts 128°
2026-04-22 16:06 55.14796 13.70669 24283 ft 423 kts 128°
2026-04-22 16:06 55.12860 13.74559 24639 ft 424 kts 128°
2026-04-22 16:06 55.10922 13.78448 24995 ft 425 kts 128°
2026-04-22 16:07 55.08981 13.82334 25367 ft 425 kts 128°
2026-04-22 16:07 55.07032 13.86225 25732 ft 425 kts 128°
2026-04-22 16:07 55.05082 13.90105 26104 ft 426 kts 128°
2026-04-22 16:07 55.03126 13.93990 26482 ft 426 kts 127°
2026-04-22 16:08 55.01171 13.97873 26856 ft 427 kts 127°
2026-04-22 16:08 54.99217 14.01747 27348 ft 424 kts 127°
2026-04-22 16:08 54.97303 14.05529 27899 ft 420 kts 127°
2026-04-22 16:08 54.95376 14.09326 28471 ft 416 kts 127°
2026-04-22 16:09 54.93467 14.13084 29049 ft 412 kts 126°
2026-04-22 16:09 54.92160 14.15544 29423 ft 412 kts 130°
2026-04-22 16:09 54.89955 14.18756 29982 ft 415 kts 138°
2026-04-22 16:09 54.86838 14.22542 30633 ft 411 kts 138°
2026-04-22 16:10 54.85251 14.24464 30936 ft 410 kts 138°
2026-04-22 16:10 54.82169 14.28196 31520 ft 407 kts 137°
2026-04-22 16:10 54.80602 14.30094 31808 ft 406 kts 137°
2026-04-22 16:10 54.78297 14.32880 32235 ft 404 kts 137°
2026-04-22 16:11 54.75986 14.35638 32672 ft 402 kts 137°
2026-04-22 16:11 54.73663 14.38318 33107 ft 401 kts 138°
2026-04-22 16:11 54.71326 14.40950 33523 ft 400 kts 138°
2026-04-22 16:11 54.68986 14.43552 33943 ft 399 kts 138°
2026-04-22 16:12 54.66659 14.46130 34326 ft 397 kts 138°
2026-04-22 16:12 54.64335 14.48713 34607 ft 397 kts 138°
2026-04-22 16:12 54.62019 14.51308 34855 ft 397 kts 138°
2026-04-22 16:12 54.59702 14.53917 35078 ft 398 kts 138°
2026-04-22 16:13 54.57382 14.56533 35303 ft 399 kts 138°
2026-04-22 16:13 54.55057 14.59150 35520 ft 400 kts 139°
2026-04-22 16:13 54.52725 14.61768 35719 ft 401 kts 139°
2026-04-22 16:13 54.50382 14.64390 35934 ft 402 kts 139°
2026-04-22 16:14 54.48034 14.67014 36142 ft 403 kts 139°
2026-04-22 16:14 54.45679 14.69639 36339 ft 404 kts 139°
2026-04-22 16:14 54.43315 14.72268 36532 ft 405 kts 140°
2026-04-22 16:14 54.40948 14.74897 36721 ft 406 kts 140°
2026-04-22 16:15 54.38576 14.77529 36911 ft 407 kts 140°
2026-04-22 16:15 54.36193 14.80166 37104 ft 407 kts 140°
2026-04-22 16:15 54.31395 14.85470 37211 ft 413 kts 140°
2026-04-22 16:16 54.26330 14.90296 37211 ft 425 kts 153°
2026-04-22 16:16 54.20728 14.93513 37212 ft 428 kts 155°
2026-04-22 16:17 54.15080 14.96733 37215 ft 428 kts 155°
2026-04-22 16:17 54.09428 14.99951 37226 ft 428 kts 155°
2026-04-22 16:18 54.03762 15.03136 37238 ft 429 kts 155°
2026-04-22 16:18 53.98066 15.06225 37239 ft 430 kts 155°
2026-04-22 16:19 53.92369 15.09297 37246 ft 430 kts 155°
2026-04-22 16:19 53.86668 15.12372 37246 ft 430 kts 155°
2026-04-22 16:20 53.80950 15.15464 37253 ft 430 kts 156°
2026-04-22 16:20 53.75243 15.18541 37260 ft 431 kts 156°
2026-04-22 16:21 53.69522 15.21611 37265 ft 432 kts 156°
2026-04-22 16:21 53.63786 15.24671 37266 ft 432 kts 156°
2026-04-22 16:22 53.55172 15.29239 37262 ft 433 kts 156°
2026-04-22 16:23 53.46603 15.33996 37251 ft 428 kts 149°
2026-04-22 16:23 53.41200 15.38171 37242 ft 428 kts 149°
2026-04-22 16:24 53.33070 15.44428 37242 ft 429 kts 149°
2026-04-22 16:25 53.27630 15.48572 37250 ft 430 kts 149°
2026-04-22 16:25 53.19458 15.54796 37241 ft 431 kts 149°
2026-04-22 16:26 53.13999 15.58949 37247 ft 431 kts 150°
2026-04-22 16:26 53.08523 15.63094 37234 ft 432 kts 150°
2026-04-22 16:27 53.03047 15.67220 37235 ft 432 kts 150°
2026-04-22 16:27 52.97569 15.71352 37235 ft 433 kts 150°
2026-04-22 16:28 52.92079 15.75479 37236 ft 433 kts 150°
2026-04-22 16:28 52.86622 15.79545 37225 ft 433 kts 150°
2026-04-22 16:29 52.81084 15.83671 37221 ft 434 kts 150°
2026-04-22 16:29 52.75540 15.87641 37220 ft 435 kts 152°
2026-04-22 16:30 52.69946 15.91506 37222 ft 436 kts 152°
2026-04-22 16:30 52.64383 15.95354 37219 ft 436 kts 152°
2026-04-22 16:31 52.58791 15.99244 37225 ft 436 kts 152°
2026-04-22 16:31 52.53157 16.03151 37214 ft 437 kts 152°
2026-04-22 16:32 52.47553 16.07033 37215 ft 437 kts 152°
2026-04-22 16:32 52.41979 16.10885 37211 ft 437 kts 152°
2026-04-22 16:33 52.36366 16.14748 37214 ft 438 kts 152°
2026-04-22 16:33 52.30749 16.18610 37212 ft 438 kts 153°
2026-04-22 16:34 52.25092 16.22487 37216 ft 438 kts 153°
2026-04-22 16:34 52.19499 16.26311 37208 ft 439 kts 153°
2026-04-22 16:35 52.13827 16.30168 37212 ft 439 kts 153°
2026-04-22 16:35 52.08222 16.33962 37204 ft 439 kts 153°
2026-04-22 16:36 52.02573 16.37791 37208 ft 440 kts 153°
2026-04-22 16:36 51.96917 16.41614 37202 ft 440 kts 153°
2026-04-22 16:37 51.91256 16.45418 37204 ft 441 kts 153°
2026-04-22 16:37 51.85588 16.49227 37203 ft 441 kts 153°
2026-04-22 16:38 51.79918 16.53034 37201 ft 442 kts 153°
2026-04-22 16:38 51.74243 16.56836 37202 ft 442 kts 154°
2026-04-22 16:39 51.68542 16.60622 37206 ft 443 kts 154°
2026-04-22 16:39 51.62846 16.64395 37207 ft 443 kts 154°
2026-04-22 16:40 51.57145 16.68170 37206 ft 443 kts 154°
2026-04-22 16:41 51.48573 16.73832 37202 ft 444 kts 154°
2026-04-22 16:41 51.42853 16.77589 37201 ft 445 kts 154°
2026-04-22 16:42 51.37125 16.81347 37212 ft 445 kts 154°
2026-04-22 16:42 51.31395 16.85106 37216 ft 445 kts 154°
2026-04-22 16:43 51.25652 16.88850 37215 ft 446 kts 154°
2026-04-22 16:43 51.19898 16.92582 37220 ft 447 kts 154°
2026-04-22 16:44 51.14137 16.96321 37225 ft 447 kts 154°
2026-04-22 16:44 51.08378 17.00063 37223 ft 447 kts 155°
2026-04-22 16:45 51.02613 17.03794 37221 ft 447 kts 155°
2026-04-22 16:45 50.96843 17.07512 37220 ft 448 kts 155°
2026-04-22 16:46 50.91069 17.11218 37219 ft 448 kts 155°
2026-04-22 16:46 50.85292 17.14909 37214 ft 448 kts 155°
2026-04-22 16:47 50.79518 17.18602 37216 ft 448 kts 155°
2026-04-22 16:47 50.74675 17.21695 37212 ft 448 kts 155°
2026-04-22 16:48 50.68892 17.25376 37209 ft 448 kts 155°
2026-04-22 16:48 50.63106 17.29045 37211 ft 449 kts 156°
2026-04-22 16:49 50.56371 17.33296 37215 ft 449 kts 156°
2026-04-22 16:49 50.51519 17.36359 37210 ft 449 kts 156°
2026-04-22 16:50 50.45712 17.40011 37200 ft 449 kts 156°
2026-04-22 16:50 50.39906 17.43657 37202 ft 450 kts 156°
2026-04-22 16:51 50.34092 17.47292 37197 ft 450 kts 156°
2026-04-22 16:51 50.28269 17.50903 37199 ft 451 kts 158°
2026-04-22 16:52 50.22174 17.53313 37196 ft 453 kts 166°
2026-04-22 16:52 50.16012 17.55379 37198 ft 453 kts 166°
2026-04-22 16:53 50.09844 17.57468 37196 ft 454 kts 166°
2026-04-22 16:53 50.03666 17.59550 37193 ft 455 kts 167°
2026-04-22 16:54 49.97473 17.61626 37190 ft 456 kts 167°
2026-04-22 16:54 49.91265 17.63694 37194 ft 457 kts 167°
2026-04-22 16:55 49.85050 17.65752 37200 ft 457 kts 167°
2026-04-22 16:55 49.78859 17.67799 37202 ft 458 kts 167°
2026-04-22 16:56 49.72625 17.69862 37206 ft 458 kts 167°
2026-04-22 16:56 49.66343 17.71943 37206 ft 459 kts 167°
2026-04-22 16:57 49.60135 17.73985 37211 ft 459 kts 168°
2026-04-22 16:57 49.53880 17.76029 37204 ft 459 kts 168°
2026-04-22 16:58 49.47626 17.78076 37207 ft 460 kts 168°
2026-04-22 16:58 49.41366 17.80131 37200 ft 460 kts 168°
2026-04-22 16:59 49.35107 17.82176 37203 ft 460 kts 168°
2026-04-22 16:59 49.28838 17.84210 37203 ft 460 kts 168°
2026-04-22 17:00 49.22569 17.86234 37203 ft 461 kts 169°
2026-04-22 17:00 49.13147 17.89275 37205 ft 461 kts 169°
2026-04-22 17:01 49.06865 17.91309 37203 ft 461 kts 169°
2026-04-22 17:01 49.00584 17.93330 37196 ft 461 kts 169°
2026-04-22 17:02 48.94304 17.95343 37196 ft 461 kts 169°
2026-04-22 17:02 48.88011 17.97350 37182 ft 461 kts 169°
2026-04-22 17:03 48.81730 17.99340 37186 ft 461 kts 169°
2026-04-22 17:03 48.75445 18.01341 37184 ft 461 kts 169°
2026-04-22 17:04 48.69164 18.03336 37175 ft 461 kts 169°
2026-04-22 17:04 48.62884 18.05323 37173 ft 461 kts 170°
2026-04-22 17:05 48.56595 18.07302 37177 ft 462 kts 170°
2026-04-22 17:05 48.50298 18.09285 37174 ft 462 kts 170°
2026-04-22 17:06 48.44000 18.11266 37169 ft 462 kts 170°
2026-04-22 17:06 48.37706 18.13245 37171 ft 463 kts 170°
2026-04-22 17:07 48.31394 18.15209 37166 ft 463 kts 170°
2026-04-22 17:07 48.25083 18.17170 37169 ft 463 kts 170°
2026-04-22 17:08 48.18772 18.19134 37166 ft 463 kts 170°
2026-04-22 17:08 48.12462 18.21082 37162 ft 463 kts 170°
2026-04-22 17:09 48.06139 18.23043 37159 ft 464 kts 170°
2026-04-22 17:09 47.99812 18.24994 37160 ft 464 kts 170°
2026-04-22 17:10 47.93484 18.26934 37161 ft 464 kts 170°
2026-04-22 17:10 47.87164 18.28874 37157 ft 464 kts 170°
2026-04-22 17:11 47.80879 18.30797 37153 ft 464 kts 170°
2026-04-22 17:11 47.74556 18.32725 37148 ft 464 kts 170°
2026-04-22 17:12 47.68236 18.34760 37149 ft 465 kts 169°
2026-04-22 17:12 47.61943 18.36967 37156 ft 465 kts 168°
2026-04-22 17:13 47.55640 18.39179 37152 ft 465 kts 169°
2026-04-22 17:13 47.49328 18.41341 37156 ft 465 kts 169°
2026-04-22 17:14 47.43013 18.43473 37149 ft 465 kts 169°
2026-04-22 17:14 47.36700 18.45599 37148 ft 466 kts 169°
2026-04-22 17:15 47.30380 18.47734 37149 ft 466 kts 169°
2026-04-22 17:15 47.24048 18.49879 37152 ft 467 kts 169°
2026-04-22 17:16 47.17719 18.52010 37159 ft 467 kts 169°
2026-04-22 17:16 47.11386 18.54131 37155 ft 467 kts 169°
2026-04-22 17:17 47.05040 18.56251 37153 ft 468 kts 169°
2026-04-22 17:17 46.98695 18.58374 37156 ft 468 kts 169°
2026-04-22 17:18 46.92350 18.60501 37160 ft 468 kts 169°
2026-04-22 17:18 46.86001 18.62607 37158 ft 468 kts 169°
2026-04-22 17:19 46.73303 18.66808 37158 ft 468 kts 169°
2026-04-22 17:20 46.60602 18.70996 37154 ft 468 kts 170°
2026-04-22 17:21 46.51068 18.74116 37149 ft 468 kts 170°
2026-04-22 17:22 46.41545 18.77239 37149 ft 468 kts 170°
2026-04-22 17:23 46.32001 18.80338 37150 ft 468 kts 170°
2026-04-22 17:23 46.22462 18.83432 37152 ft 469 kts 170°
2026-04-22 17:24 46.16078 18.85511 37155 ft 469 kts 170°
2026-04-22 17:24 46.09726 18.87562 37154 ft 469 kts 170°
2026-04-22 17:25 46.03357 18.89607 37158 ft 469 kts 170°
2026-04-22 17:25 45.96981 18.91652 37153 ft 470 kts 170°
2026-04-22 17:26 45.90860 18.95003 37155 ft 476 kts 151°
2026-04-22 17:26 45.85270 19.00110 37150 ft 476 kts 149°
2026-04-22 17:27 45.79671 19.05222 37149 ft 477 kts 149°
2026-04-22 17:27 45.74056 19.10307 37149 ft 477 kts 150°
2026-04-22 17:28 45.68438 19.15386 37158 ft 478 kts 149°
2026-04-22 17:28 45.62813 19.20479 37164 ft 478 kts 150°
2026-04-22 17:29 45.57193 19.25563 37159 ft 478 kts 150°
2026-04-22 17:29 45.51563 19.30631 37170 ft 478 kts 150°
2026-04-22 17:30 45.46880 19.34826 37167 ft 478 kts 150°
2026-04-22 17:30 45.41178 19.39687 37160 ft 476 kts 158°
2026-04-22 17:31 45.34976 19.42767 37157 ft 472 kts 166°
2026-04-22 17:31 45.28701 19.45535 37217 ft 472 kts 163°
2026-04-22 17:32 45.22434 19.48323 37161 ft 471 kts 163°
2026-04-22 17:32 45.16169 19.51105 37156 ft 472 kts 163°
2026-04-22 17:33 45.09893 19.53863 37159 ft 473 kts 163°
2026-04-22 17:33 45.03604 19.56617 37156 ft 473 kts 163°
2026-04-22 17:34 44.97311 19.59378 37160 ft 474 kts 163°
2026-04-22 17:34 44.91010 19.62135 37162 ft 474 kts 164°
2026-04-22 17:35 44.84707 19.64888 37164 ft 474 kts 164°
2026-04-22 17:35 44.78402 19.67628 37167 ft 474 kts 164°
2026-04-22 17:36 44.72090 19.70358 37164 ft 474 kts 164°
2026-04-22 17:36 44.65788 19.73092 37162 ft 474 kts 164°
2026-04-22 17:37 44.59484 19.75821 37161 ft 474 kts 165°
2026-04-22 17:37 44.53174 19.78540 37160 ft 474 kts 165°
2026-04-22 17:38 44.46862 19.81257 37159 ft 475 kts 165°
2026-04-22 17:38 44.40542 19.83975 37159 ft 475 kts 165°
2026-04-22 17:39 44.34225 19.86684 37155 ft 475 kts 165°
2026-04-22 17:40 44.24859 19.91353 37156 ft 478 kts 160°
2026-04-22 17:40 44.18726 19.94947 37154 ft 478 kts 159°
2026-04-22 17:41 44.12578 19.98479 37153 ft 478 kts 160°
2026-04-22 17:41 44.06385 20.01891 37149 ft 479 kts 161°
2026-04-22 17:42 44.00168 20.05261 37152 ft 479 kts 161°
2026-04-22 17:42 43.94000 20.08626 37139 ft 480 kts 161°
2026-04-22 17:43 43.87752 20.12046 37141 ft 480 kts 161°
2026-04-22 17:43 43.81535 20.15447 37145 ft 480 kts 161°
2026-04-22 17:44 43.75310 20.18838 37139 ft 481 kts 161°
2026-04-22 17:44 43.69080 20.22226 37137 ft 481 kts 161°
2026-04-22 17:45 43.62844 20.25604 37143 ft 482 kts 162°
2026-04-22 17:45 43.56596 20.28992 37146 ft 482 kts 162°
2026-04-22 17:46 43.50350 20.32363 37134 ft 483 kts 162°
2026-04-22 17:46 43.44131 20.35705 37147 ft 483 kts 162°
2026-04-22 17:47 43.37870 20.39069 37138 ft 483 kts 162°
2026-04-22 17:47 43.31607 20.42434 37142 ft 484 kts 162°
2026-04-22 17:48 43.26352 20.45243 37137 ft 484 kts 162°
2026-04-22 17:48 43.19057 20.49144 37133 ft 484 kts 162°
2026-04-22 17:49 43.12774 20.52491 37134 ft 484 kts 162°
2026-04-22 17:49 43.06489 20.55818 37127 ft 485 kts 162°
2026-04-22 17:50 43.00198 20.59155 37119 ft 485 kts 163°
2026-04-22 17:50 42.93908 20.62491 37113 ft 485 kts 163°
2026-04-22 17:51 42.87612 20.65820 37107 ft 485 kts 163°
2026-04-22 17:51 42.81312 20.69134 37104 ft 485 kts 163°
2026-04-22 17:52 42.75015 20.72435 37098 ft 485 kts 163°
2026-04-22 17:52 42.68720 20.75737 37096 ft 485 kts 163°
2026-04-22 17:53 42.62421 20.79033 37093 ft 484 kts 163°
2026-04-22 17:53 42.56132 20.82315 37093 ft 484 kts 163°
2026-04-22 17:54 42.49846 20.85590 37094 ft 484 kts 163°
2026-04-22 17:54 42.43561 20.88856 37093 ft 483 kts 163°
2026-04-22 17:55 42.38341 20.91566 37090 ft 483 kts 164°
2026-04-22 17:55 42.31001 20.95370 37092 ft 483 kts 164°
2026-04-22 17:56 42.24716 20.98607 37082 ft 483 kts 164°
2026-04-22 17:56 42.18433 21.01840 37080 ft 484 kts 164°
2026-04-22 17:57 42.12134 21.05050 37056 ft 481 kts 168°
2026-04-22 17:57 42.05697 21.06953 37059 ft 476 kts 175°
2026-04-22 17:58 41.99136 21.08575 37067 ft 476 kts 176°
2026-04-22 17:58 41.92649 21.10176 37064 ft 476 kts 176°
2026-04-22 17:59 41.86123 21.11786 37069 ft 476 kts 176°
2026-04-22 17:59 41.79607 21.13397 37061 ft 476 kts 176°
2026-04-22 18:00 41.74150 21.14743 37078 ft 476 kts 176°
2026-04-22 18:00 41.66560 21.16609 37059 ft 478 kts 176°
2026-04-22 18:01 41.60021 21.18214 37056 ft 478 kts 176°
2026-04-22 18:01 41.53466 21.19818 37052 ft 478 kts 176°
2026-04-22 18:02 41.46967 21.21418 37043 ft 478 kts 176°
2026-04-22 18:02 41.40423 21.23021 37042 ft 478 kts 176°
2026-04-22 18:03 41.33868 21.24619 37049 ft 479 kts 177°
2026-04-22 18:03 41.27301 21.26218 37045 ft 479 kts 177°
2026-04-22 18:04 41.20740 21.27807 37057 ft 479 kts 177°
2026-04-22 18:04 41.14178 21.29396 37030 ft 479 kts 177°
2026-04-22 18:05 41.07619 21.30985 37034 ft 479 kts 177°
2026-04-22 18:05 41.01052 21.32567 37042 ft 479 kts 178°
2026-04-22 18:06 40.94489 21.34142 37048 ft 479 kts 178°
2026-04-22 18:06 40.87967 21.35667 37043 ft 475 kts 181°
2026-04-22 18:07 40.82545 21.36115 37041 ft 469 kts 186°
2026-04-22 18:07 40.74930 21.36572 37039 ft 469 kts 186°
2026-04-22 18:08 40.68452 21.36971 37035 ft 469 kts 186°
2026-04-22 18:08 40.61928 21.37379 37036 ft 469 kts 186°
2026-04-22 18:09 40.55399 21.37776 37025 ft 470 kts 187°
2026-04-22 18:09 40.49903 21.38111 37024 ft 471 kts 187°
2026-04-22 18:10 40.43184 21.38476 37027 ft 471 kts 187°
2026-04-22 18:10 40.37730 21.38829 37026 ft 472 kts 186°
2026-04-22 18:11 40.31230 21.39252 37019 ft 472 kts 186°
2026-04-22 18:11 40.24610 21.39665 37018 ft 472 kts 187°
2026-04-22 18:12 40.18044 21.40066 37022 ft 472 kts 187°
2026-04-22 18:12 40.11475 21.40461 37026 ft 472 kts 187°
2026-04-22 18:13 40.04915 21.40852 37026 ft 472 kts 187°
2026-04-22 18:13 39.98343 21.41250 37026 ft 472 kts 187°
2026-04-22 18:14 39.91781 21.41651 37020 ft 472 kts 187°
2026-04-22 18:14 39.85223 21.42045 37027 ft 472 kts 187°
2026-04-22 18:15 39.78670 21.42431 37020 ft 471 kts 187°
2026-04-22 18:15 39.72107 21.42830 37010 ft 471 kts 187°
2026-04-22 18:16 39.65556 21.43224 37005 ft 471 kts 186°
2026-04-22 18:16 39.59012 21.43609 37009 ft 470 kts 187°
2026-04-22 18:17 39.52481 21.43998 37013 ft 469 kts 187°
2026-04-22 18:17 39.45962 21.44394 37011 ft 468 kts 187°
2026-04-22 18:18 39.39455 21.44780 37005 ft 468 kts 187°
2026-04-22 18:18 39.32944 21.45163 36988 ft 468 kts 187°
2026-04-22 18:19 39.26446 21.45544 36987 ft 467 kts 187°
2026-04-22 18:19 39.19951 21.45924 36981 ft 466 kts 186°
2026-04-22 18:20 39.13472 21.46308 36981 ft 466 kts 186°
2026-04-22 18:20 39.06997 21.46687 36986 ft 465 kts 186°
2026-04-22 18:21 39.00535 21.47058 36978 ft 465 kts 186°
2026-04-22 18:21 38.94116 21.47437 36976 ft 465 kts 186°
2026-04-22 18:22 38.87649 21.47807 36971 ft 465 kts 186°
2026-04-22 18:22 38.81191 21.48188 36968 ft 465 kts 186°
2026-04-22 18:23 38.74689 21.48581 36769 ft 464 kts 184°
2026-04-22 18:23 38.71455 21.49161 36503 ft 475 kts 174°
2026-04-22 18:23 38.68268 21.50411 36230 ft 485 kts 164°
2026-04-22 18:24 38.62128 21.53798 34916 ft 476 kts 163°
2026-04-22 18:24 38.59131 21.55452 34116 ft 473 kts 163°
2026-04-22 18:24 38.53067 21.58760 32278 ft 469 kts 163°
2026-04-22 18:25 38.50101 21.60366 31392 ft 470 kts 163°
2026-04-22 18:25 38.47085 21.62001 30527 ft 472 kts 163°
2026-04-22 18:25 38.44053 21.63647 29411 ft 473 kts 163°
2026-04-22 18:26 38.38091 21.66890 28320 ft 464 kts 163°
2026-04-22 18:26 38.35126 21.68503 27712 ft 460 kts 163°
2026-04-22 18:26 38.32200 21.70094 27110 ft 455 kts 163°
2026-04-22 18:26 38.29308 21.71664 26515 ft 451 kts 163°
2026-04-22 18:27 38.26433 21.73223 25922 ft 446 kts 163°
2026-04-22 18:27 38.23596 21.74759 25342 ft 441 kts 163°
2026-04-22 18:27 38.20780 21.76279 24771 ft 437 kts 163°
2026-04-22 18:27 38.17996 21.77780 24206 ft 433 kts 163°
2026-04-22 18:28 38.15235 21.79269 23650 ft 428 kts 163°
2026-04-22 18:28 38.12513 21.80733 23043 ft 424 kts 163°
2026-04-22 18:28 38.09804 21.82191 22515 ft 420 kts 163°
2026-04-22 18:28 38.07118 21.83637 22003 ft 417 kts 163°
2026-04-22 18:29 38.04459 21.85068 21494 ft 413 kts 163°
2026-04-22 18:29 38.01825 21.86487 21015 ft 410 kts 163°
2026-04-22 18:29 37.99218 21.87889 20526 ft 406 kts 163°
2026-04-22 18:29 37.96624 21.89282 20064 ft 403 kts 163°
2026-04-22 18:30 37.94055 21.90661 19589 ft 399 kts 163°
2026-04-22 18:30 37.88979 21.93382 18647 ft 393 kts 162°
2026-04-22 18:30 37.86476 21.94721 18136 ft 389 kts 162°
2026-04-22 18:31 37.83990 21.96048 17623 ft 386 kts 162°
2026-04-22 18:31 37.81527 21.97361 17122 ft 383 kts 162°
2026-04-22 18:31 37.79115 21.98647 16626 ft 379 kts 162°
2026-04-22 18:31 37.76661 21.99956 16118 ft 377 kts 162°
2026-04-22 18:32 37.74289 22.01219 15632 ft 374 kts 162°
2026-04-22 18:32 37.71903 22.02489 15112 ft 370 kts 162°
2026-04-22 18:32 37.69538 22.03749 14604 ft 367 kts 162°
2026-04-22 18:32 37.67193 22.04998 14089 ft 364 kts 162°
2026-04-22 18:33 37.64868 22.06234 13563 ft 361 kts 162°
2026-04-22 18:33 37.62565 22.07458 13034 ft 357 kts 162°
2026-04-22 18:33 37.60281 22.08671 12539 ft 355 kts 162°
2026-04-22 18:33 37.58014 22.09872 12023 ft 352 kts 162°
2026-04-22 18:34 37.55767 22.11061 11519 ft 349 kts 162°
2026-04-22 18:34 37.53539 22.12240 11020 ft 346 kts 161°
2026-04-22 18:34 37.51326 22.13413 10522 ft 341 kts 161°
2026-04-22 18:34 37.49195 22.14548 10260 ft 324 kts 161°
2026-04-22 18:35 37.47160 22.15633 9973 ft 312 kts 161°
2026-04-22 18:35 37.45168 22.16687 9825 ft 311 kts 162°
2026-04-22 18:35 37.43172 22.17736 9693 ft 310 kts 161°
2026-04-22 18:35 37.41187 22.18777 9553 ft 309 kts 161°
2026-04-22 18:36 37.39205 22.19818 9424 ft 308 kts 161°
2026-04-22 18:36 37.37224 22.20858 9162 ft 308 kts 161°
2026-04-22 18:36 37.35194 22.21540 8775 ft 296 kts 182°
2026-04-22 18:36 37.33205 22.21249 8420 ft 284 kts 204°
2026-04-22 18:37 37.31500 22.20116 8051 ft 274 kts 224°
2026-04-22 18:37 37.30263 22.18351 7642 ft 268 kts 243°
2026-04-22 18:37 37.29751 22.16945 7369 ft 265 kts 256°
2026-04-22 18:37 37.29382 22.13897 6839 ft 266 kts 266°
2026-04-22 18:38 37.29192 22.11582 6444 ft 266 kts 266°
2026-04-22 18:38 37.29000 22.09304 6034 ft 257 kts 266°
2026-04-22 18:38 37.28811 22.07101 5666 ft 250 kts 265°
2026-04-22 18:39 37.28584 22.04466 5220 ft 242 kts 265°
2026-04-22 18:43 37.28504 22.03710 5143 ft 236 kts 263°
2026-04-22 18:44 37.28303 22.01679 4755 ft 232 kts 264°
2026-04-22 18:44 37.27852 21.99776 4381 ft 227 kts 237°
2026-04-22 18:44 37.26688 21.98513 4050 ft 223 kts 203°
2026-04-22 18:44 37.25182 21.98296 3737 ft 218 kts 168°
2026-04-22 18:45 37.23754 21.98789 3463 ft 206 kts 168°
2026-04-22 18:45 37.22381 21.99115 3166 ft 195 kts 172°
2026-04-22 18:45 37.21081 21.99363 2925 ft 178 kts 172°
2026-04-22 18:45 37.19927 21.99582 2657 ft 160 kts 172°
2026-04-22 18:46 37.18855 21.99791 2434 ft 153 kts 171°
2026-04-22 18:46 37.17814 21.99997 2213 ft 150 kts 171°
2026-04-22 18:46 37.16796 22.00204 1980 ft 147 kts 171°
2026-04-22 18:46 37.15787 22.00413 1752 ft 146 kts 170°
2026-04-22 18:47 37.14790 22.00622 1519 ft 145 kts 170°
2026-04-22 18:47 37.13813 22.00840 1253 ft 144 kts 169°
2026-04-22 18:47 37.12830 22.01073 1000 ft 143 kts 167°
2026-04-22 18:47 37.11855 22.01339 808 ft 144 kts 167°
2026-04-22 18:48 37.10871 22.01568 588 ft 143 kts 168°
2026-04-22 18:48 37.09899 22.01824 412 ft 143 kts 168°
2026-04-22 18:48 37.08928 22.02053 208 ft 142 kts 169°
2026-04-22 18:48 37.07959 22.02277 60 ft 141 kts 169°
2026-04-22 18:49 37.07094 22.02481 33 ft 96 kts 169°
2026-04-22 18:49 37.06729 22.02564 31 ft 19 kts 169°
2026-04-22 18:49 37.06598 22.02595 33 ft 20 kts 169°
2026-04-22 18:49 37.06476 22.02618 30 ft 7 kts 191°
2026-04-22 18:50 37.06455 22.02558 32 ft 8 kts 261°
2026-04-22 18:50 37.06445 22.02490 34 ft 8 kts 259°
2026-04-22 18:50 37.06412 22.02473 34 ft 7 kts 172°
2026-04-22 18:50 37.06324 22.02488 34 ft 17 kts 171°
2026-04-22 18:51 37.06197 22.02519 33 ft 20 kts 169°
2026-04-22 18:51 37.06052 22.02552 34 ft 22 kts 171°
2026-04-22 18:51 37.05892 22.02591 34 ft 25 kts 170°
2026-04-22 18:51 37.05788 22.02604 34 ft 11 kts 182°
2026-04-22 18:52 37.05708 22.02614 34 ft 13 kts 169°
2026-04-22 18:52 37.05624 22.02664 34 ft 14 kts 98°
2026-04-22 18:52 37.05608 22.02799 33 ft 17 kts 103°
2026-04-22 18:52 37.05527 22.02868 34 ft 10 kts 117°
2026-04-22 18:53 37.05537 22.02963 34 ft 12 kts 77°
2026-04-22 18:53 37.05532 22.03078 35 ft 14 kts 104°
2026-04-22 18:53 37.05514 22.03163 34 ft 16 kts 105°
2026-04-22 18:53 37.05486 22.03265 35 ft 10 kts 80°
2026-04-22 18:54 37.05495 22.03305 35 ft 1 kts 49°
2026-04-22 18:54 37.05507 22.03308 35 ft 3 kts 16°
2026-04-22 18:54 37.05534 22.03313 35 ft 0 kts
2026-04-22 18:54 37.05544 22.03325 35 ft 0 kts 60°
2026-04-22 18:55 37.05544 22.03334 35 ft 2 kts 91°
2026-04-22 18:55 37.05531 22.03346 35 ft 3 kts 164°
2026-04-22 18:55 37.05527 22.03344 35 ft 2 kts 184°
2026-04-22 18:55 37.05516 22.03329 35 ft 0 kts 232°